Le nostre stazioni meteo in Italia

Pubblicità
Il mio iltempo24.it
Ferrara, Italia (16138): Temperatura & dewpoint: 25.05.2020 00:00:00 - 31.05.2020 00:00:00 (CEST)Ferrara, Italia (16138): velocità del vento: 25.05.2020 00:00:00 - 31.05.2020 00:00:00 (CEST)Ferrara, Italia (16138): direzione del vento: 25.05.2020 00:00:00 - 31.05.2020 00:00:00 (CEST)Ferrara, Italia (16138): reduced air pressure: 25.05.2020 00:00:00 - 31.05.2020 00:00:00 (CEST)Ferrara, Italia (16138): visibility: 25.05.2020 00:00:00 - 31.05.2020 00:00:00 (CEST)
Data & Tempo tt [°C] td [°C] ff [km/h] ff [kn] dd ppp [hPa] vv [km]
31.05.2020 00:00:00 - - - - - - -
30.05.2020 23:00:00 - - - - - - -
30.05.2020 22:00:00 - - - - - - -
30.05.2020 21:00:00 - - - - - - -
30.05.2020 20:00:00 20,0 10,7 2 1 ESE 1015,5 20
30.05.2020 19:00:00 22,0 10,0 - - - - 10
30.05.2020 18:00:00 23,0 10,0 - - - - 10
30.05.2020 17:00:00 21,2 10,7 4 2 E 1016,1 15
30.05.2020 16:00:00 22,0 12,0 - - - - 10
30.05.2020 15:00:00 21,0 11,0 - - - - 10
30.05.2020 14:00:00 21,0 12,4 0 0 N 1017,1 12
30.05.2020 13:00:00 22,0 10,0 - - - - 10
30.05.2020 12:00:00 21,0 11,0 - - - - 10
30.05.2020 11:00:00 20,8 11,4 2 1 SE 1018,0 12
30.05.2020 10:00:00 18,0 13,0 - - - - 10
30.05.2020 09:00:00 15,0 11,0 - - - - 10
30.05.2020 08:00:00 12,8 10,4 2 1 N 1018,5 12
30.05.2020 07:00:00 - - - - - - -
30.05.2020 06:00:00 - - - - - - -
30.05.2020 05:00:00 - - - - - - -
30.05.2020 04:00:00 - - - - - - -
30.05.2020 03:00:00 - - - - - - -
30.05.2020 02:00:00 - - - - - - -
30.05.2020 01:00:00 - - - - - - -
30.05.2020 00:00:00 - - - - - - -
29.05.2020 23:00:00 - - - - - - -
29.05.2020 22:00:00 - - - - - - -
29.05.2020 21:00:00 - - - - - - -
29.05.2020 20:00:00 17,8 8,9 0 0 N 1019,6 40
29.05.2020 19:00:00 18,0 10,0 - - - - 10
29.05.2020 18:00:00 18,0 12,0 - - - - 10
29.05.2020 17:00:00 17,0 11,3 0 0 N 1020,9 40
29.05.2020 16:00:00 16,0 12,0 - - - - 10
29.05.2020 15:00:00 19,0 12,0 - - - - 10
29.05.2020 14:00:00 16,2 12,5 9 5 S 1022,1 40
29.05.2020 13:00:00 13,0 10,0 - - - - 10
29.05.2020 12:00:00 18,0 12,0 - - - - 10
29.05.2020 11:00:00 18,0 11,1 0 0 N 1022,6 10
29.05.2020 10:00:00 16,0 12,0 - - - - 10
29.05.2020 09:00:00 15,0 12,0 - - - - 10
29.05.2020 08:00:00 13,8 12,2 0 0 N 1022,5 10
29.05.2020 07:00:00 - - - - - - -
29.05.2020 06:00:00 - - - - - - -
29.05.2020 05:00:00 - - - - - - -
29.05.2020 04:00:00 - - - - - - -
29.05.2020 03:00:00 - - - - - - -
29.05.2020 02:00:00 - - - - - - -
29.05.2020 01:00:00 - - - - - - -
29.05.2020 00:00:00 - - - - - - -
28.05.2020 23:00:00 - - - - - - -
28.05.2020 22:00:00 - - - - - - -
28.05.2020 21:00:00 - - - - - - -
28.05.2020 20:00:00 23,2 10,6 9 5 E 1020,1 30
28.05.2020 19:00:00 25,0 11,0 - - - - 10
28.05.2020 18:00:00 26,0 11,0 - - - - 10
28.05.2020 17:00:00 26,0 11,0 8 4 SSE 1021,3 30
28.05.2020 16:00:00 25,0 10,0 - - - - 10
28.05.2020 15:00:00 25,0 10,0 - - - - 10
28.05.2020 14:00:00 26,0 11,4 8 4 E 1023,3 30
28.05.2020 13:00:00 25,0 11,0 - - - - 10
28.05.2020 12:00:00 24,0 11,0 - - - - 10
28.05.2020 11:00:00 23,6 10,7 9 5 N 1025,1 30
28.05.2020 10:00:00 21,0 12,0 - - - - 10
28.05.2020 09:00:00 17,0 10,0 - - - - 10
28.05.2020 08:00:00 13,4 9,5 2 1 S 1026,3 30
28.05.2020 07:00:00 - - - - - - -
28.05.2020 06:00:00 - - - - - - -
28.05.2020 05:00:00 - - - - - - -
28.05.2020 04:00:00 - - - - - - -
28.05.2020 03:00:00 - - - - - - -
28.05.2020 02:00:00 - - - - - - -
28.05.2020 01:00:00 - - - - - - -
28.05.2020 00:00:00 - - - - - - -
27.05.2020 23:00:00 - - - - - - -
27.05.2020 22:00:00 - - - - - - -
27.05.2020 21:00:00 - - - - - - -
27.05.2020 20:00:00 22,4 7,8 0 0 N 1027,3 20
27.05.2020 19:00:00 24,0 8,0 - - - - 10
27.05.2020 18:00:00 24,0 8,0 - - - - 10
27.05.2020 17:00:00 25,0 8,9 0 0 N 1028,5 20
27.05.2020 16:00:00 24,0 8,0 - - - - 10
27.05.2020 15:00:00 25,0 10,0 - - - - 10
27.05.2020 14:00:00 23,8 9,0 8 4 NE 1029,7 20
27.05.2020 13:00:00 24,0 11,0 - - - - 10
27.05.2020 12:00:00 23,0 10,0 - - - - 10
27.05.2020 11:00:00 20,8 10,3 0 0 N 1030,6 20
27.05.2020 10:00:00 20,0 12,0 - - - - 10
27.05.2020 09:00:00 18,0 11,0 - - - - 10
27.05.2020 08:00:00 15,4 11,6 0 0 N 1029,9 20
27.05.2020 07:00:00 - - - - - - -
27.05.2020 06:00:00 - - - - - - -
27.05.2020 05:00:00 - - - - - - -
27.05.2020 04:00:00 - - - - - - -
27.05.2020 03:00:00 - - - - - - -
27.05.2020 02:00:00 - - - - - - -
27.05.2020 01:00:00 - - - - - - -
27.05.2020 00:00:00 - - - - - - -
26.05.2020 23:00:00 - - - - - - -
26.05.2020 22:00:00 - - - - - - -
26.05.2020 21:00:00 - - - - - - -
26.05.2020 20:00:00 21,0 5,8 8 4 ESE 1026,8 30
26.05.2020 19:00:00 23,0 8,0 - - - - 10
26.05.2020 18:00:00 23,0 9,0 - - - - 10
26.05.2020 17:00:00 23,6 8,5 15 8 S 1026,1 30
26.05.2020 16:00:00 24,0 9,0 - - - - 10
26.05.2020 15:00:00 25,0 10,0 - - - - 10
26.05.2020 14:00:00 23,8 8,7 24 13 E 1027,5 30
26.05.2020 13:00:00 24,0 9,0 - - - - 10
26.05.2020 12:00:00 23,0 9,0 - - - - 10
26.05.2020 11:00:00 22,8 11,2 9 5 ESE 1027,7 20
26.05.2020 10:00:00 21,0 13,0 - - - - 10
26.05.2020 09:00:00 19,0 14,0 - - - - 10
26.05.2020 08:00:00 17,0 13,5 4 2 E 1027,1 10
26.05.2020 07:00:00 - - - - - - -
26.05.2020 06:00:00 - - - - - - -
26.05.2020 05:00:00 - - - - - - -
26.05.2020 04:00:00 - - - - - - -
26.05.2020 03:00:00 - - - - - - -
26.05.2020 02:00:00 - - - - - - -
26.05.2020 01:00:00 - - - - - - -
26.05.2020 00:00:00 - - - - - - -
25.05.2020 23:00:00 - - - - - - -
25.05.2020 22:00:00 - - - - - - -
25.05.2020 21:00:00 - - - - - - -
25.05.2020 20:00:00 26,0 7,6 0 0 N 1022,2 40
25.05.2020 19:00:00 27,0 7,0 - - - - 10
25.05.2020 18:00:00 28,0 8,0 - - - - 10
25.05.2020 17:00:00 27,8 8,2 0 0 N 1023,6 40
25.05.2020 16:00:00 27,0 8,0 8 4 ESE - 10
25.05.2020 15:00:00 28,0 10,0 5 3 ESE - 10
25.05.2020 14:00:00 27,4 10,2 0 0 N 1025,8 40
25.05.2020 13:00:00 27,0 10,0 0 0 N - 10
25.05.2020 12:00:00 25,0 11,0 - - - - 10
25.05.2020 11:00:00 23,8 12,5 0 0 N 1027,2 40
25.05.2020 10:00:00 21,0 14,0 0 0 N - 10
25.05.2020 09:00:00 19,0 13,0 - - - - 10
25.05.2020 08:00:00 16,6 13,3 0 0 N 1027,1 40
25.05.2020 07:00:00 - - - - - - -
25.05.2020 06:00:00 - - - - - - -
25.05.2020 05:00:00 - - - - - - -
25.05.2020 04:00:00 - - - - - - -
25.05.2020 03:00:00 - - - - - - -
25.05.2020 02:00:00 - - - - - - -
25.05.2020 01:00:00 - - - - - - -
25.05.2020 00:00:00 - - - - - - -

tt = Temperatura
td = dewpoint
ff = velocità del vento
dd = direzione del vento
ppp = reduced air pressure
vv = visibility

Stazioni seguenti

WeatherPro
AMSI
MeteoEarth